Weather History for Nenana, AK

Change the Weather History Date:

Monday, September 10, 2012

  Actual Average Record
Temperature  
Mean Temperature 47 °F -  
Max Temperature 57 °F 55 °F 73 °F (1965)
Min Temperature 37 °F 33 °F 37 °F (2006)
Degree Days  
Heating Degree Days 18    
Moisture  
Dew Point 28 °F    
Average Humidity 74    
Maximum Humidity 96    
Minimum Humidity 35    
Precipitation  
Precipitation 0.16 in - - ()
Sea Level Pressure  
Sea Level Pressure 29.96 in    
Wind  
Wind Speed 2 mph (ENE)    
Max Wind Speed 13 mph    
Max Gust Speed 20 mph    
Visibility 8 miles    
Events Fog , Rain    
Averages and records for this station are not official NWS values.
T = Trace of Precipitation, MM = Missing Value Source: NWS Daily Summary

Daily Weather History Graph

Daily Weather History Graph

Search for Another Location

Airport:

Trip Planner

Search our weather history database for the weather conditions in past years. The results will help you decide how hot, cold, wet, or windy it might be!

Date:

Astronomy

Sep. 10, 2012 Rise Set
Actual Time 7:06 AM AKDT 8:38 PM AKDT
Civil Twilight 6:15 AM AKDT 9:28 PM AKDT
Nautical Twilight 5:09 AM AKDT 10:33 PM AKDT
Astronomical Twilight 3:39 AM AKDT 11:59 PM AKDT
Moon No Moon Rise 6:45 PM AKDT (9/10)
Length of Visible Light 15h 13m
Length of Day
13h 32m
Waning Crescent, 29% of the Moon is Illuminated
Sep 10
Waning Crescent
Sep 15
New
Sep 22
First Quarter
Sep 29
Full
Oct 7
Last Quarter

Hourly Weather History & Observations

Time (AKDT) Temp. Windchill Dew Point Humidity Pressure Visibility Wind Dir Wind Speed Gust Speed Precip Events Conditions
12:53 AM 37.0 °F - 33.1 °F 86% 29.95 in 10.0 mi Calm Calm - N/A   Clear
1:53 AM 33.1 °F - 30.0 °F 89% 29.96 in 10.0 mi Calm Calm - N/A   Clear
2:53 AM 30.9 °F - 28.0 °F 89% 29.96 in 10.0 mi Calm Calm - N/A   Clear
3:00 AM 30.2 °F - 26.6 °F 86% 29.94 in 10.0 mi Calm Calm - N/A   Scattered Clouds
3:09 AM 30.2 °F - 26.6 °F 86% 29.94 in 3.0 mi Calm Calm - N/A   Mostly Cloudy
3:39 AM 30.2 °F - 26.6 °F 86% 29.95 in 10.0 mi Calm Calm - N/A   Scattered Clouds
3:53 AM 28.9 °F - 27.0 °F 92% 29.98 in 10.0 mi Calm Calm - N/A   Partly Cloudy
4:40 AM 28.4 °F - 26.6 °F 93% 29.95 in 10.0 mi Calm Calm - N/A   Mostly Cloudy
4:50 AM 28.4 °F - 26.6 °F 93% 29.95 in 2.0 mi Calm Calm - N/A   Overcast
4:53 AM 28.0 °F - 26.1 °F 92% 29.98 in 3.0 mi Calm Calm - N/A   Overcast
5:49 AM 28.4 °F - 24.8 °F 86% 29.95 in 10.0 mi Calm Calm - N/A   Overcast
5:53 AM 28.0 °F - 25.0 °F 88% 29.98 in 10.0 mi Calm Calm - N/A   Overcast
6:53 AM 28.0 °F - 26.1 °F 92% 29.99 in 10.0 mi Calm Calm - N/A   Partly Cloudy
7:15 AM 26.6 °F - 24.8 °F 93% 29.96 in 2.5 mi Calm Calm - N/A   Scattered Clouds
7:19 AM 28.4 °F - 24.8 °F 86% 29.96 in 1.5 mi Calm Calm - N/A   Mostly Cloudy
7:34 AM 28.4 °F - 24.8 °F 86% 29.96 in 0.2 mi Calm Calm - N/A Fog Light Freezing Fog
7:53 AM 28.0 °F - 26.1 °F 92% 29.99 in 0.5 mi Calm Calm - N/A Fog Light Freezing Fog
8:02 AM 28.4 °F - 26.6 °F 93% 29.96 in 2.0 mi Calm Calm - N/A   Mostly Cloudy
8:07 AM 28.4 °F - 26.6 °F 93% 29.96 in 3.0 mi Calm Calm - N/A   Scattered Clouds
8:14 AM 28.4 °F - 26.6 °F 93% 29.97 in 2.5 mi Calm Calm - N/A   Scattered Clouds
8:32 AM 30.2 °F - 26.6 °F 86% 29.97 in 10.0 mi Calm Calm - N/A   Partly Cloudy
8:53 AM 30.9 °F - 30.0 °F 96% 30.00 in 10.0 mi Calm Calm - N/A   Clear
9:53 AM 37.0 °F 34.5 °F 32.0 °F 82% 30.00 in 10.0 mi ESE 3.5 mph - N/A   Scattered Clouds
10:53 AM 37.0 °F 34.5 °F 30.9 °F 79% 30.01 in 10.0 mi NW 3.5 mph - N/A   Mostly Cloudy
11:53 AM 46.0 °F 40.2 °F 28.0 °F 50% 30.00 in 10.0 mi East 12.7 mph 19.6 mph N/A   Mostly Cloudy
12:53 PM 48.0 °F - 26.1 °F 42% 29.99 in 10.0 mi East 11.5 mph 17.3 mph N/A   Clear
1:53 PM 48.9 °F - 24.1 °F 38% 29.99 in 10.0 mi ENE 9.2 mph - N/A   Clear
2:53 PM 48.9 °F - 23.0 °F 36% 29.98 in 10.0 mi ESE 6.9 mph - N/A   Clear
3:53 PM 51.1 °F - 24.1 °F 35% 29.97 in 10.0 mi East 8.1 mph - N/A   Scattered Clouds
4:53 PM 48.9 °F - 25.0 °F 39% 29.96 in 10.0 mi East 6.9 mph - N/A   Overcast
5:53 PM 48.9 °F - 24.1 °F 38% 29.96 in 10.0 mi East 12.7 mph 16.1 mph N/A   Mostly Cloudy
6:53 PM 46.9 °F - 23.0 °F 39% 29.95 in 10.0 mi East 6.9 mph - N/A   Mostly Cloudy
7:53 PM 45.0 °F 43.5 °F 25.0 °F 46% 29.94 in 10.0 mi NE 3.5 mph - N/A   Partly Cloudy
8:53 PM 41.0 °F 38.0 °F 26.1 °F 55% 29.94 in 10.0 mi NNE 4.6 mph - N/A   Clear
9:53 PM 39.0 °F 35.7 °F 26.1 °F 60% 29.93 in 10.0 mi NE 4.6 mph - N/A   Clear
10:53 PM 39.9 °F 35.1 °F 26.1 °F 58% 29.93 in 10.0 mi ENE 6.9 mph - N/A   Clear
11:53 PM 39.9 °F 34.5 °F 26.1 °F 58% 29.92 in 10.0 mi ENE 8.1 mph - N/A   Clear